Location: Unspecified
(0.0000°N, 0.0000°E)
Time: 14:52:05
(UTC+00:00)

Geosat - Pass Details

Date: 19 June 2023
Orbit: 761 x 764 km, 108.1° (Epoch: 20 September)

Event Time Altitude Azimuth Distance (km) Brightness Sun altitude
Exits shadow 03:38:37 30° 7° (N) 1,339 5.4 -32.3°
Drops below altitude 10° 03:41:14 10° 352° (N) 2,286 6.6 -31.8°
Sets 03:43:33 0° 347° (NNW) 3,208 7.4 -31.3°
